Meteo pe oră la Bolshie Ledinki

Astăzi, 8 Mai, Sâmbătă

Timp Temperatura Precipitaţii Vânt Presiune Umiditate
00:00 +5°C° 0.3 mm 4 m/s 737 mmHg 85%
01:00 +5°C° 0.3 mm 4 m/s 737 mmHg 86%
02:00 +5°C° 0.3 mm 4 m/s 736 mmHg 88%
03:00 +6°C° 0.9 mm 4 m/s 736 mmHg 90%
04:00 +6°C° 0.9 mm 4 m/s 735 mmHg 92%
05:00 +6°C° 0.9 mm 5 m/s 734 mmHg 94%
06:00 +6°C° 0.1 mm 4 m/s 734 mmHg 92%
07:00 +7°C° 0.1 mm 4 m/s 734 mmHg 90%
08:00 +9°C° 0.1 mm 3 m/s 734 mmHg 89%
09:00 +9°C° 0.1 mm 3 m/s 734 mmHg 84%
10:00 +10°C° 0.1 mm 3 m/s 734 mmHg 79%
11:00 +12°C° 0.1 mm 2 m/s 734 mmHg 74%
12:00 +10°C° 0.1 mm 3 m/s 734 mmHg 75%
13:00 +9°C° 0.1 mm 3 m/s 735 mmHg 77%
14:00 +8°C° 0.1 mm 4 m/s 735 mmHg 78%
15:00 +8°C° 0 mm 4 m/s 735 mmHg 76%
16:00 +7°C° 0 mm 4 m/s 735 mmHg 75%
17:00 +7°C° 0 mm 4 m/s 735 mmHg 73%
18:00 +7°C° 0 mm 4 m/s 736 mmHg 74%
19:00 +6°C° 0 mm 4 m/s 736 mmHg 75%
20:00 +5°C° 0 mm 4 m/s 736 mmHg 76%
21:00 +4°C° 0 mm 4 m/s 737 mmHg 78%
22:00 +4°C° 0 mm 4 m/s 737 mmHg 80%
23:00 +3°C° 0 mm 4 m/s 737 mmHg 81%

Mâine, 9 Mai, Duminică

Timp Temperatura Precipitaţii Vânt Presiune Umiditate
00:00 +3°C° 0 mm 4 m/s 738 mmHg 82%
01:00 +3°C° 0 mm 4 m/s 738 mmHg 83%
02:00 +1°C° 0 mm 4 m/s 739 mmHg 84%
03:00 +1°C° 0 mm 4 m/s 740 mmHg 83%
04:00 +1°C° 0 mm 4 m/s 740 mmHg 82%
05:00 +1°C° 0 mm 5 m/s 741 mmHg 81%
06:00 +2°C° 0 mm 5 m/s 741 mmHg 74%
07:00 +3°C° 0 mm 5 m/s 742 mmHg 67%
08:00 +5°C° 0 mm 5 m/s 742 mmHg 60%
09:00 +6°C° 0 mm 5 m/s 743 mmHg 54%
10:00 +8°C° 0 mm 5 m/s 743 mmHg 48%
11:00 +9°C° 0 mm 5 m/s 744 mmHg 42%
12:00 +9°C° 0 mm 5 m/s 744 mmHg 40%
13:00 +10°C° 0 mm 5 m/s 745 mmHg 38%
14:00 +10°C° 0 mm 5 m/s 745 mmHg 37%
15:00 +11°C° 0 mm 4 m/s 746 mmHg 39%
16:00 +11°C° 0 mm 4 m/s 746 mmHg 41%
17:00 +11°C° 0 mm 3 m/s 746 mmHg 43%
18:00 +9°C° 0 mm 3 m/s 747 mmHg 49%
19:00 +7°C° 0 mm 2 m/s 748 mmHg 55%
20:00 +5°C° 0 mm 2 m/s 749 mmHg 62%
21:00 +6°C° 0 mm 1 m/s 749 mmHg 63%
22:00 +5°C° 0 mm 1 m/s 749 mmHg 64%
23:00 +5°C° 0 mm 1 m/s 750 mmHg 66%

Poimâine, 10 Mai, Luni

Timp Temperatura Precipitaţii Vânt Presiune Umiditate
00:00 +3°C° 0 mm 2 m/s 750 mmHg 68%
01:00 +3°C° 0 mm 2 m/s 751 mmHg 70%
02:00 +3°C° 0 mm 2 m/s 751 mmHg 72%
03:00 +3°C° 0 mm 2 m/s 751 mmHg 72%
04:00 +3°C° 0 mm 2 m/s 752 mmHg 73%
05:00 +3°C° 0 mm 2 m/s 752 mmHg 73%
06:00 +5°C° 0 mm 3 m/s 752 mmHg 66%
07:00 +8°C° 0 mm 3 m/s 752 mmHg 59%
08:00 +10°C° 0 mm 4 m/s 753 mmHg 52%
09:00 +11°C° 0 mm 4 m/s 752 mmHg 50%
10:00 +13°C° 0 mm 4 m/s 752 mmHg 48%
11:00 +14°C° 0 mm 4 m/s 752 mmHg 46%
12:00 +15°C° 0 mm 4 m/s 752 mmHg 46%
13:00 +15°C° 0 mm 4 m/s 752 mmHg 46%
14:00 +17°C° 0 mm 4 m/s 752 mmHg 45%
15:00 +17°C° 0 mm 3 m/s 752 mmHg 49%
16:00 +17°C° 0 mm 3 m/s 752 mmHg 52%
17:00 +17°C° 0 mm 3 m/s 752 mmHg 56%
18:00 +15°C° 0 mm 2 m/s 752 mmHg 64%
19:00 +13°C° 0 mm 2 m/s 753 mmHg 72%
20:00 +10°C° 0 mm 2 m/s 753 mmHg 80%
21:00 +9°C° 0 mm 2 m/s 753 mmHg 82%
22:00 +8°C° 0 mm 2 m/s 753 mmHg 84%
23:00 +8°C° 0 mm 2 m/s 753 mmHg 86%

11 Mai, Marţi

Timp Temperatura Precipitaţii Vânt Presiune Umiditate
00:00 +8°C° 0 mm 2 m/s 754 mmHg 86%
01:00 +7°C° 0 mm 2 m/s 754 mmHg 86%
02:00 +8°C° 0 mm 1 m/s 754 mmHg 87%
03:00 +8°C° 0 mm 1 m/s 754 mmHg 86%
04:00 +8°C° 0 mm 1 m/s 754 mmHg 84%
05:00 +9°C° 0 mm 1 m/s 754 mmHg 83%
06:00 +11°C° 0 mm 1 m/s 754 mmHg 76%
07:00 +12°C° 0 mm 2 m/s 754 mmHg 69%
08:00 +14°C° 0 mm 2 m/s 754 mmHg 62%
09:00 +16°C° 0 mm 2 m/s 755 mmHg 58%
10:00 +17°C° 0 mm 2 m/s 755 mmHg 54%
11:00 +18°C° 0 mm 2 m/s 755 mmHg 50%
12:00 +19°C° 0 mm 2 m/s 754 mmHg 49%
13:00 +19°C° 0 mm 2 m/s 754 mmHg 49%
14:00 +20°C° 0 mm 2 m/s 754 mmHg 48%
15:00 +19°C° 0 mm 2 m/s 754 mmHg 51%
16:00 +19°C° 0 mm 2 m/s 753 mmHg 54%
17:00 +19°C° 0 mm 2 m/s 753 mmHg 57%
18:00 +17°C° 0 mm 2 m/s 753 mmHg 65%
19:00 +15°C° 0 mm 2 m/s 753 mmHg 72%
20:00 +13°C° 0 mm 2 m/s 753 mmHg 79%
21:00 +12°C° 0 mm 2 m/s 753 mmHg 81%
22:00 +12°C° 0 mm 2 m/s 753 mmHg 84%
23:00 +10°C° 0 mm 2 m/s 753 mmHg 86%

12 Mai, Miercuri

Timp Temperatura Precipitaţii Vânt Presiune Umiditate
00:00 +11°C° 0 mm 1 m/s 753 mmHg 87%
01:00 +10°C° 0 mm 1 m/s 753 mmHg 87%
02:00 +10°C° 0 mm 1 m/s 752 mmHg 88%
03:00 +10°C° 0 mm 1 m/s 753 mmHg 88%
04:00 +10°C° 0 mm 1 m/s 753 mmHg 88%
05:00 +10°C° 0 mm 1 m/s 753 mmHg 87%
06:00 +12°C° 0 mm 2 m/s 753 mmHg 80%
07:00 +14°C° 0 mm 2 m/s 752 mmHg 72%
08:00 +16°C° 0 mm 3 m/s 752 mmHg 64%
09:00 +17°C° 0 mm 3 m/s 752 mmHg 58%
10:00 +19°C° 0 mm 4 m/s 752 mmHg 53%
11:00 +20°C° 0 mm 4 m/s 752 mmHg 48%
12:00 +20°C° 0 mm 4 m/s 751 mmHg 46%
13:00 +21°C° 0 mm 4 m/s 751 mmHg 44%
14:00 +21°C° 0 mm 4 m/s 751 mmHg 42%
15:00 +21°C° 0 mm 3 m/s 751 mmHg 46%
16:00 +21°C° 0 mm 3 m/s 750 mmHg 50%
17:00 +21°C° 0 mm 3 m/s 750 mmHg 54%
18:00 +19°C° 0 mm 3 m/s 750 mmHg 62%
19:00 +17°C° 0 mm 2 m/s 750 mmHg 70%
20:00 +15°C° 0 mm 2 m/s 750 mmHg 78%
21:00 +14°C° 0 mm 2 m/s 750 mmHg 80%
22:00 +13°C° 0 mm 2 m/s 750 mmHg 82%
23:00 +13°C° 0 mm 2 m/s 750 mmHg 84%

13 Mai, Joi

Timp Temperatura Precipitaţii Vânt Presiune Umiditate
00:00 +13°C° 0 mm 2 m/s 750 mmHg 83%
01:00 +13°C° 0 mm 2 m/s 750 mmHg 82%
02:00 +13°C° 0 mm 2 m/s 750 mmHg 82%
03:00 +12°C° 0 mm 2 m/s 750 mmHg 82%
04:00 +12°C° 0 mm 2 m/s 750 mmHg 83%
05:00 +11°C° 0 mm 3 m/s 750 mmHg 83%
06:00 +13°C° 0 mm 3 m/s 749 mmHg 76%
07:00 +15°C° 0 mm 4 m/s 749 mmHg 69%
08:00 +18°C° 0 mm 4 m/s 749 mmHg 62%
09:00 +19°C° 0 mm 5 m/s 748 mmHg 58%
10:00 +20°C° 0 mm 5 m/s 748 mmHg 54%
11:00 +22°C° 0 mm 5 m/s 748 mmHg 51%
12:00 +22°C° 0 mm 5 m/s 748 mmHg 51%
13:00 +22°C° 0 mm 5 m/s 747 mmHg 51%
14:00 +22°C° 0 mm 5 m/s 747 mmHg 52%
15:00 +22°C° 0 mm 5 m/s 746 mmHg 54%
16:00 +22°C° 0 mm 5 m/s 746 mmHg 56%
17:00 +21°C° 0 mm 5 m/s 746 mmHg 58%
18:00 +20°C° 0.3 mm 5 m/s 745 mmHg 65%
19:00 +17°C° 0.3 mm 5 m/s 745 mmHg 73%
20:00 +17°C° 0.3 mm 4 m/s 745 mmHg 81%
21:00 +15°C° 0 mm 4 m/s 745 mmHg 85%
22:00 +14°C° 0 mm 3 m/s 745 mmHg 89%
23:00 +13°C° 0 mm 3 m/s 745 mmHg 93%
Arată mai mult

Formular de consimțământ

Meteoprog și furnizorii noștri de servicii pot stoca și accesa date personale, precum cookies, identificatori de dispozitiv sau alte tehnologii similare pe dispozitivul dumneavoastră și procesa astfel de date pentru a personaliza conținutul și reclamele, dar și pentru a oferi caracteristici de social media și pentru a analiza traficul.

  • Stocarea și/sau accesarea informațiilor pe dispozitivul dumneavoastră

    Cookies, identificatori de dispozitiv sau alte informații pot fi stocate sau accesate pe dispozitiv în scopurile indicate mai sus.

  • Reclame și conținut personalizat, evaluarea reclamelor și a conținutului, informații despre audiențe și dezvoltarea produselor

    Reclamele și conținutul pot fi personalizate pe baza unui profil. Pot fi adăugate date suplimentare pentru a personaliza mai bine reclamele și conținutul. Performanța reclamelor și conținutului poate fi măsurată. Pot fi obținute informații despre utilizatorii care au văzut reclamele și conținutul. Aceste date pot fi utilizate pentru a dezvolta sau îmbunătăți experiența utilizatorilor, sistemele și software-ul.

Dând clic pe ‘Sunt de acord’, permiteți utilizarea cookie-urilor menționate, a identificatorilor de dispozitiv, balizelor web sau altor tehnologii similare. Setările pot fi modificate din browser-ul dispozitivului dumneavoastră.

În anumite scopuri, interesele legitime pot prima asupra consimțământului. Puteți citi mai multe informații în acest sens în Politica privind Confidențialitatea Datelor și Cookie.